Theta_e
301 302 302 302 301 301 302 302 303 303 304 301 298 300 298 298 296 311 313 312 306 297 289 291 289 289 292 297 296 298 296 295 295 293 296 292 295 294 294 294 292 295 292 292 290 292 290 291 291 297 297 298 298 302 302 303 302 300 296 301 301 313 285 284 287 291 293 296 299 299 300 299 296 296 296 293 289 290 286 283 285 283 286 284 283 281 287
301 302 302 302 302 301 302 302 303 304 304 301 300 297 297 300 299 301 311 310 305 295 283 283 283 290 294 295 296 299 297 296 295 293 295 293 295 293 294 293 296 292 294 291 290 293 283 292 292 292 298 295 302 304 304 306 300 301 298 295 303 287 289 288 282 283 285 288 292 293 298 299 294 293 298 299 296 297 295 294 290 283 286 286 282 279 282
302 302 301 301 301 301 301 302 303 304 304 305 299 295 299 302 305 305 306 308 305 294 296 293 287 293 294 294 293 295 297 297 296 295 294 297 294 294 295 295 296 293 294 292 293 293 291 288 293 294 299 298 302 303 305 305 302 307 308 310 304 291 290 287 280 279 276 276 279 282 285 290 293 298 299 301 299 296 289 283 285 281 287 289 284 285 292
302 302 301 301 301 301 302 302 303 304 304 305 301 297 298 298 287 298 302 304 303 301 303 299 295 291 293 287 294 295 294 297 297 297 295 296 297 295 295 295 296 294 294 292 292 291 294 290 291 290 294 297 300 304 304 305 304 310 311 309 303 293 296 292 288 285 284 283 288 293 295 293 290 295 298 298 299 297 294 290 285 283 285 284 290 293 293
302 301 301 301 301 301 302 302 303 304 304 305 300 299 298 302 292 289 287 299 299 297 300 298 298 290 296 285 295 291 293 295 295 298 292 296 295 295 294 294 292 292 292 291 291 292 292 294 292 291 294 299 299 304 305 306 308 310 307 309 300 293 286 294 294 293 292 294 295 296 297 294 295 294 294 297 297 295 291 284 284 292 284 281 290 295 293
302 302 301 301 301 301 302 302 303 304 304 305 302 295 300 292 297 299 301 293 286 288 290 298 297 298 297 292 297 294 293 294 290 294 296 295 296 293 293 294 294 293 294 294 285 291 291 291 287 295 296 296 298 298 302 302 306 305 303 305 300 294 285 295 294 293 296 295 295 296 296 296 295 294 294 294 296 296 292 292 295 293 283 284 291 296 293
302 301 301 300 300 301 302 302 303 304 303 304 299 294 301 303 300 300 304 293 297 295 297 299 297 297 297 293 296 293 295 292 295 294 295 294 294 293 282 293 293 293 294 292 289 291 284 281 295 295 295 294 293 292 297 301 303 303 301 300 301 295 286 294 295 292 295 296 297 297 295 294 293 293 294 295 294 294 295 294 295 296 292 293 295 294 291
301 301 300 300 300 301 302 302 303 303 303 303 299 298 295 297 295 296 300 302 295 297 298 299 297 293 297 286 295 296 295 293 296 297 295 287 293 296 292 292 294 294 294 293 289 294 293 292 286 297 295 294 295 292 294 292 298 300 299 301 301 295 285 293 295 288 288 294 296 297 296 292 289 291 293 294 294 294 294 293 294 294 292 293 292 290 288
300 301 301 300 300 301 302 302 303 303 304 299 299 299 303 305 307 303 297 292 296 297 298 295 293 290 291 287 295 295 296 294 297 296 297 295 293 295 293 295 294 295 295 295 294 296 295 296 295 297 297 288 298 292 293 299 294 299 298 299 297 297 286 294 291 284 285 293 294 294 293 290 288 287 289 291 292 289 292 289 292 294 290 293 292 288 287
300 301 300 300 300 301 302 302 303 303 303 298 300 299 309 310 306 306 300 290 294 293 296 296 293 285 290 295 295 294 294 296 295 288 296 297 298 298 295 295 292 293 294 294 295 297 297 296 297 296 296 297 299 298 299 294 291 291 295 298 291 294 290 287 286 284 284 292 293 292 292 289 285 284 288 290 294 294 293 293 294 293 295 288 286 287 292
299 300 300 300 300 301 301 302 302 303 302 298 298 300 303 304 302 303 301 289 287 291 292 292 291 293 297 299 296 296 295 295 295 288 287 297 298 298 296 297 293 289 293 297 300 300 300 299 299 298 297 297 296 298 298 303 299 297 294 295 295 297 294 287 291 283 284 291 291 291 284 279 281 289 294 292 291 292 289 288 291 293 293 289 292 291 291
300 300 300 300 300 301 301 302 302 303 303 301 301 298 301 303 304 303 292 287 286 293 291 289 292 295 296 298 297 294 295 294 296 295 292 296 299 299 296 295 293 283 298 300 300 299 301 301 300 297 297 296 296 297 300 301 297 297 297 294 292 292 291 286 292 284 284 288 288 282 276 278 289 294 293 295 296 294 291 291 292 293 293 291 289 288 288
299 300 300 300 300 301 301 302 302 303 304 302 301 297 302 306 303 301 297 292 287 293 287 292 296 296 297 298 296 295 297 295 296 296 296 294 295 297 299 297 296 298 301 297 298 296 293 292 292 294 295 296 297 298 298 296 296 298 298 299 293 287 288 286 287 285 285 283 281 277 278 287 292 292 293 295 296 294 292 289 291 293 291 290 288 288 289
299 300 300 300 300 301 301 302 302 303 303 303 300 300 301 303 301 302 298 289 287 294 295 292 294 296 296 295 294 294 295 295 295 296 294 298 296 297 299 297 297 298 299 299 297 295 288 288 282 285 287 291 287 288 294 296 297 296 297 297 300 297 293 289 284 287 281 282 282 282 287 286 287 287 288 290 288 290 288 283 286 292 292 291 289 289 289
299 300 300 300 300 301 302 302 303 303 303 304 302 301 301 303 304 304 303 297 287 291 293 284 289 293 294 291 292 289 290 292 291 289 296 299 297 301 300 299 299 299 299 295 291 292 286 284 281 280 282 280 278 281 290 289 295 299 298 299 299 300 289 289 285 282 285 282 281 281 281 278 282 288 293 296 296 295 295 290 285 293 294 293 291 289 289
299 299 299 300 300 301 302 302 303 303 303 305 302 300 301 305 307 307 301 295 292 283 287 296 296 295 291 291 293 292 287 286 289 290 292 295 295 297 298 299 299 300 298 296 293 287 285 281 280 280 279 280 286 282 280 289 288 295 298 298 297 297 297 292 286 283 282 282 281 281 279 279 285 286 290 293 294 294 296 289 283 290 294 293 292 290 291
299 299 299 300 301 301 302 302 303 304 304 305 301 301 301 308 309 303 300 299 297 284 294 295 298 296 291 290 292 290 294 287 292 283 285 287 295 296 297 299 300 300 301 294 291 286 284 282 282 280 284 288 283 280 286 284 281 284 293 292 293 290 286 284 283 281 282 282 281 277 282 280 285 288 291 293 294 296 292 281 280 290 295 295 294 292 292
299 299 299 300 301 301 302 303 303 304 304 306 303 300 301 307 310 308 302 298 291 288 293 295 294 290 289 291 290 295 297 295 293 296 288 293 295 294 296 297 295 299 300 289 289 284 282 282 281 281 280 290 290 289 278 285 278 279 282 286 283 284 283 283 281 280 281 282 280 282 281 286 288 289 291 293 296 294 283 279 284 293 294 294 293 291 291
299 299 299 300 300 301 302 303 304 304 305 305 304 304 304 307 309 308 303 300 297 283 293 296 297 298 298 299 296 296 298 295 294 286 285 285 292 298 298 297 299 287 296 288 289 283 282 282 287 283 281 283 288 280 288 282 279 284 285 284 283 280 282 284 284 283 281 281 280 279 281 285 289 291 292 294 290 282 280 288 295 296 294 294 292 291 291
299 299 299 300 301 301 302 303 304 304 305 306 304 300 304 308 311 307 304 298 297 290 293 294 296 295 298 295 291 290 292 293 293 289 287 285 296 298 291 286 293 295 290 291 283 287 283 281 284 288 282 282 283 286 284 287 292 287 285 285 281 281 282 281 281 283 284 283 280 279 276 284 290 290 292 291 285 284 291 293 295 295 294 293 292 292 291
298 299 299 300 301 302 302 303 304 305 305 306 305 302 303 309 309 311 310 305 300 286 289 297 297 295 296 296 297 296 295 291 292 290 294 295 298 291 282 283 288 290 285 286 282 284 285 283 284 284 288 286 285 289 283 284 287 291 290 285 283 285 281 280 280 283 280 278 277 276 282 286 291 290 283 288 290 293 295 294 291 294 293 292 291 291 292
298 299 299 300 301 302 303 303 304 305 306 306 305 304 302 307 311 313 312 308 295 286 292 298 298 297 299 300 300 297 297 299 302 300 294 289 297 294 292 296 295 296 295 294 289 287 290 287 290 285 283 286 290 284 289 284 282 287 291 288 280 287 283 284 281 284 280 279 282 286 288 289 291 291 291 292 294 296 295 294 292 291 292 293 291 290 291
298 298 299 300 301 302 303 303 304 304 305 306 305 303 303 305 307 310 307 296 298 298 300 300 300 298 299 300 300 301 301 303 304 305 304 296 289 296 295 295 295 300 299 298 289 288 290 290 284 290 286 286 285 285 287 285 283 286 283 290 287 290 290 291 288 284 289 290 290 291 290 290 290 292 293 293 293 294 294 293 291 292 292 292 291 291 291
298 298 299 300 301 302 302 303 304 304 305 306 305 302 304 307 310 307 303 303 293 288 290 294 292 285 293 296 299 300 301 301 304 306 307 306 288 291 299 301 303 301 298 300 298 291 288 289 291 291 285 288 290 284 282 282 282 287 286 286 291 292 292 290 284 287 286 280 289 288 288 290 291 291 293 294 294 293 293 292 292 291 292 292 292 292 292
298 298 299 300 301 301 302 303 304 304 305 305 305 306 307 308 310 306 303 288 289 288 283 285 287 297 298 300 299 298 299 302 304 305 307 306 302 294 292 300 306 297 297 299 300 293 289 286 289 286 284 288 291 283 289 286 285 291 283 285 286 284 293 287 287 286 284 283 288 290 291 291 291 291 290 290 291 292 293 293 293 293 293 293 293 293 292
298 298 299 299 300 301 302 303 303 304 305 305 306 304 305 306 308 309 305 303 297 291 282 283 290 301 299 298 297 300 303 302 302 305 306 306 307 304 303 304 305 309 303 303 301 288 287 287 287 287 287 287 294 286 285 290 289 292 288 285 289 289 293 284 287 284 287 289 290 290 290 289 290 291 292 292 292 292 292 292 292 292 291 291 292 292 292
298 298 299 299 300 301 302 303 303 304 304 305 304 305 307 309 308 302 303 302 295 283 285 284 291 295 299 297 300 300 302 301 301 302 303 304 305 304 305 300 297 297 296 295 294 288 288 286 285 286 290 289 292 289 290 289 289 286 285 289 292 289 284 288 287 283 283 284 286 289 283 282 288 290 291 292 293 293 292 291 291 291 291 291 290 290 291
298 298 299 299 300 301 302 302 303 304 304 305 306 308 310 309 309 308 307 305 299 286 285 284 287 292 298 297 300 300 301 301 301 302 300 301 303 302 299 297 296 294 293 289 285 285 285 284 286 287 288 291 289 286 290 290 290 288 288 290 292 288 288 286 283 284 283 288 290 291 290 289 290 290 292 293 293 293 291 290 290 291 291 291 290 289 289
298 298 299 299 300 301 302 302 303 304 305 304 306 309 307 308 310 309 309 310 306 301 291 290 293 293 287 294 302 298 301 302 302 300 300 299 300 299 298 298 295 295 294 289 286 285 285 286 287 287 287 293 290 285 287 283 284 283 287 291 291 292 292 290 290 290 291 292 292 292 291 288 290 292 293 293 294 292 291 291 290 290 290 290 289 289 288
298 298 299 299 300 301 302 302 303 304 304 304 307 305 295 298 307 305 306 310 308 304 287 285 282 285 299 300 299 300 301 302 302 301 300 297 296 295 296 295 294 296 294 289 287 284 286 286 286 291 294 296 288 285 283 283 284 286 291 292 293 293 293 292 292 290 288 293 293 293 293 293 294 294 294 294 294 294 291 290 289 290 290 290 289 288 287
298 298 299 300 300 301 302 302 303 304 303 305 304 291 288 286 299 307 304 308 310 304 290 287 285 290 289 297 298 296 299 299 298 297 297 297 296 296 297 296 295 295 286 286 285 286 286 285 285 288 293 293 288 284 283 284 283 285 290 291 291 291 291 291 292 292 292 292 292 292 292 291 292 292 291 291 292 293 292 292 293 293 292 291 290 289 288
298 298 299 300 300 301 301 302 303 303 301 304 300 296 297 300 303 302 302 306 311 304 287 284 284 284 285 289 299 300 299 300 301 300 296 299 294 296 295 296 292 296 291 286 287 286 285 286 286 289 289 292 290 284 284 284 282 284 290 290 292 292 293 292 292 292 293 293 292 289 289 289 290 288 287 290 290 291 290 291 291 292 293 292 290 290 289
298 299 299 300 300 301 302 303 303 302 298 301 304 303 303 303 303 302 305 309 306 299 296 285 282 283 284 290 298 300 301 300 297 296 293 297 293 295 289 296 295 294 300 289 285 283 288 285 286 285 290 291 284 285 285 284 286 290 291 292 292 293 293 294 294 294 293 293 292 287 286 287 289 290 291 291 291 291 290 291 291 291 291 290 289 289 289
298 299 299 299 300 301 302 302 303 303 304 303 303 306 308 304 303 304 306 309 303 301 291 284 282 282 283 293 291 296 299 293 291 295 285 297 298 294 288 292 292 285 290 285 287 286 287 286 285 285 288 285 285 283 282 285 289 290 290 291 293 293 293 293 292 291 291 292 292 292 292 292 292 292 292 291 291 292 293 293 293 291 290 290 289 290 289
298 299 299 300 300 301 302 303 302 304 303 305 306 306 308 303 303 301 310 304 292 285 286 286 286 282 282 284 283 291 300 296 288 292 286 291 299 293 293 285 287 283 285 295 285 285 284 285 289 284 282 286 282 281 281 286 288 288 289 290 291 291 290 289 289 291 291 291 291 292 293 292 291 290 290 291 292 292 292 292 293 292 290 289 289 289 290
298 299 299 300 301 302 301 305 303 304 303 303 303 307 304 304 306 312 311 310 302 293 285 284 285 282 284 281 281 284 298 293 295 295 292 289 290 297 294 287 283 287 293 287 283 287 283 290 285 281 285 281 280 282 284 288 288 288 289 289 290 291 289 288 289 289 290 291 292 292 291 290 289 290 291 292 292 292 291 291 291 291 290 289 289 289 289
298 299 300 300 301 301 299 297 305 306 303 305 306 305 304 306 310 307 307 305 307 303 295 287 284 285 289 283 286 287 293 283 292 288 290 286 284 287 287 283 281 286 285 283 284 282 287 292 284 281 281 280 282 288 289 289 289 289 289 290 291 292 291 290 291 291 291 292 292 291 290 289 289 290 290 290 290 291 291 290 289 289 288 288 289 288 289
299 300 297 299 300 291 291 294 303 310 305 303 303 303 298 300 289 289 291 289 297 298 291 293 285 288 290 287 282 291 291 285 292 283 284 287 284 284 286 284 284 285 280 282 285 292 286 284 282 281 281 287 289 290 291 291 291 291 291 291 291 291 291 291 291 291 289 288 288 288 289 288 288 289 290 290 290 290 290 290 290 290 290 290 290 290 290
298 296 299 300 297 289 290 299 307 300 309 305 307 292 288 290 289 286 286 288 288 286 289 289 286 290 288 287 288 295 293 285 283 285 282 288 284 281 284 281 283 283 281 281 284 294 281 281 282 281 281 284 285 288 290 291 291 291 292 291 292 292 292 293 293 291 289 287 289 291 290 289 288 289 290 290 290 290 290 290 290 290 290 290 290 290 291
297 297 292 294 291 294 303 302 302 305 304 293 292 290 285 288 285 282 288 284 284 286 288 285 293 291 291 289 287 288 295 291 281 281 283 285 291 282 284 283 285 282 277 279 281 290 281 277 281 280 279 281 283 288 289 290 289 289 290 289 291 293 293 293 293 293 292 291 292 293 293 293 292 291 290 290 290 289 289 289 290 290 289 288 289 291 291
299 299 299 291 299 301 302 303 304 303 294 289 287 287 285 283 286 286 285 283 283 284 290 291 292 290 292 293 291 286 294 297 294 291 285 282 290 288 282 280 284 280 279 279 283 285 283 280 280 279 280 283 286 288 289 290 290 290 291 291 291 291 293 293 293 293 292 291 291 291 291 292 292 291 291 291 291 290 290 290 290 291 290 290 291 291 291
295 295 297 299 299 300 302 299 294 290 288 289 283 281 284 283 286 285 285 281 282 286 290 292 286 288 288 292 291 292 289 297 291 286 284 281 286 284 281 283 284 279 276 282 284 284 282 278 278 279 282 286 288 289 289 289 289 289 290 291 291 290 291 293 294 293 292 292 291 291 291 291 291 291 291 290 291 291 291 290 291 291 291 291 292 292 291
300 300 299 298 297 291 292 288 289 287 280 280 279 279 282 280 282 282 282 286 289 289 289 298 293 294 294 296 291 294 290 295 287 285 283 282 286 285 281 281 280 277 279 285 283 280 278 277 277 280 285 288 289 289 289 290 290 289 290 291 291 292 291 290 291 293 293 293 291 291 292 291 291 290 291 291 291 290 290 290 290 290 291 291 292 292 291
299 301 298 293 288 288 289 279 287 284 281 282 280 277 279 279 281 283 282 284 288 287 292 290 290 289 284 291 288 287 287 290 289 286 284 285 283 279 280 278 279 282 286 282 281 277 278 281 282 284 287 289 291 290 289 290 289 289 290 290 291 291 291 290 290 290 291 292 293 292 292 291 290 291 291 290 291 291 290 290 290 291 291 291 292 292 291
293 291 289 286 283 286 283 274 284 282 277 279 283 281 281 279 281 282 283 287 292 289 292 292 290 290 287 291 289 289 287 284 288 283 280 283 280 281 279 279 282 283 280 278 280 280 280 279 283 286 288 288 289 290 290 290 290 289 289 290 290 290 290 290 290 289 289 290 291 291 291 291 290 290 290 290 290 292 292 292 291 291 291 290 290 291 291
290 287 285 278 274 280 282 279 280 278 282 284 282 284 284 285 286 287 292 294 291 291 291 292 291 291 286 289 285 283 286 285 283 283 284 284 279 278 283 285 283 279 278 279 276 275 277 282 284 285 288 289 290 290 290 290 291 291 290 289 290 291 291 291 290 290 290 291 291 291 290 290 291 290 290 291 290 292 292 291 291 291 291 290 290 290 290
290 288 287 284 279 282 285 279 280 282 286 286 287 288 288 289 291 291 293 294 292 292 293 294 293 291 286 286 286 286 286 286 282 284 284 279 279 281 285 281 276 278 275 274 276 277 280 283 285 287 289 290 290 291 291 291 291 290 291 290 290 291 291 291 291 290 290 290 292 292 291 290 290 291 290 290 291 291 291 292 292 292 292 292 291 291 290
286 288 286 277 275 281 280 282 288 287 288 289 289 290 291 293 292 290 294 296 294 294 293 291 288 288 286 290 289 283 284 284 282 282 284 282 283 280 278 277 278 279 280 277 277 282 284 285 286 288 290 291 291 291 291 291 291 291 291 291 290 291 291 291 290 290 291 290 290 291 291 290 291 290 290 290 290 290 292 293 292 292 292 293 292 291 292
291 287 283 282 283 283 282 285 287 285 287 289 290 292 292 293 291 292 294 294 294 293 293 291 287 287 284 287 284 283 281 284 280 279 283 281 277 273 274 272 275 274 279 282 281 285 286 287 289 290 291 291 291 292 291 291 292 291 291 291 291 292 292 291 291 292 294 293 291 291 290 291 290 290 291 291 291 291 293 293 293 292 292 292 293 292 290
288 285 287 285 284 284 286 287 286 283 288 290 291 289 292 291 292 294 296 294 295 292 291 289 289 286 285 285 281 282 281 283 282 283 280 277 278 279 278 275 277 277 280 283 284 287 289 289 290 290 291 291 291 292 291 292 291 292 293 293 293 293 293 291 291 291 292 291 291 291 290 289 289 290 290 291 292 292 292 292 292 291 292 292 292 292 292
289 287 285 289 285 283 286 281 282 283 284 286 288 289 291 291 292 292 298 297 294 290 286 284 285 285 283 281 281 278 280 284 282 280 279 278 282 279 277 276 278 282 283 286 289 290 290 290 290 290 291 291 291 292 292 292 292 292 292 292 292 292 292 292 292 292 292 291 289 289 290 290 291 291 292 291 291 291 291 291 292 292 292 292 292 292 292
285 283 283 286 290 289 289 288 288 289 288 290 290 291 293 292 294 295 298 295 291 286 283 286 285 283 280 279 281 284 285 283 281 281 279 281 283 280 279 280 281 285 287 288 289 290 289 290 290 290 291 291 291 291 292 292 292 292 292 292 292 292 292 292 292 291 292 291 290 289 291 292 292 292 292 292 292 291 289 288 290 292 293 293 293 292 293
Wind_Speed
11 12 12 12 12 11 11 12 13 12 13 6 6 6 3 3 2 4 8 6 7 4 2 3 3 5 5 9 15 7 6 4 5 4 1 2 2 2 0 2 3 1 3 3 4 7 3 3 3 5 5 3 3 6 9 13 8 5 5 4 8 5 2 3 2 2 3 5 7 8 3 7 6 2 3 6 9 8 7 5 6 6 3 3 1 2 3
12 12 11 11 11 10 11 12 13 13 11 6 6 3 3 2 1 4 3 6 5 2 3 3 5 4 7 8 8 10 5 2 2 2 2 1 1 2 1 5 1 2 4 4 3 4 2 4 5 5 5 1 5 12 13 13 5 8 2 2 6 2 2 2 1 0 1 5 8 7 8 9 4 3 12 13 8 8 3 4 3 4 3 10 8 5 3
12 12 11 11 10 10 11 11 12 12 11 7 3 3 4 2 1 2 4 3 4 3 1 1 1 2 3 4 5 5 2 4 5 6 7 7 3 3 1 1 4 3 1 2 3 3 2 1 6 4 2 2 3 9 12 10 7 7 8 9 3 3 1 3 2 4 4 4 3 2 6 6 3 9 13 13 9 3 2 4 5 4 7 5 4 3 2
12 11 10 10 9 10 10 11 11 10 10 8 3 2 3 1 0 0 1 1 1 4 3 3 2 5 5 2 2 4 4 1 3 6 4 3 5 2 2 5 3 5 7 5 4 5 4 2 2 2 1 0 4 6 10 10 8 11 14 11 3 1 1 3 2 3 6 4 4 3 3 3 8 9 12 7 6 5 6 5 5 3 2 5 2 9 9
12 11 10 9 9 10 10 10 11 9 8 8 3 3 3 0 1 1 1 0 3 3 1 4 4 3 4 1 1 4 4 4 4 4 1 1 3 3 5 2 2 1 2 3 4 3 7 6 4 6 2 5 5 10 7 6 9 10 7 12 3 2 4 6 6 4 5 6 5 3 6 10 11 11 7 10 7 4 7 5 4 4 5 4 2 6 10
12 11 10 9 9 10 10 10 10 8 7 8 2 3 2 0 1 2 2 1 3 3 5 8 6 10 10 2 3 3 2 3 0 2 3 5 3 2 3 6 4 5 0 1 0 2 3 4 3 11 8 4 5 4 6 4 4 6 3 7 6 2 2 3 3 3 3 4 6 7 8 12 10 10 9 9 7 10 8 2 1 3 4 6 4 6 8
11 11 9 9 9 10 10 11 10 9 9 7 3 2 2 1 1 5 2 1 1 5 7 8 11 5 8 0 1 2 2 1 3 1 2 1 3 4 1 2 6 5 6 2 1 2 1 1 3 3 1 4 2 3 4 1 2 5 4 6 2 4 2 3 3 2 5 5 4 7 11 10 15 12 10 8 8 8 7 7 8 3 2 9 11 9 8
10 11 10 9 9 9 10 11 10 9 11 7 3 4 0 2 0 1 2 1 4 7 3 2 7 3 0 2 1 0 1 1 2 2 0 1 3 2 1 2 1 7 6 8 1 2 5 5 1 1 2 1 2 1 1 1 2 3 2 3 5 5 3 6 4 2 1 2 6 9 10 13 13 11 12 10 6 7 7 6 7 9 13 10 11 12 8
10 11 11 9 9 9 10 10 10 9 7 3 4 3 5 3 1 2 4 3 4 7 2 2 2 3 1 1 2 1 2 1 2 0 1 0 1 3 1 3 6 5 9 6 8 7 5 4 3 3 1 1 3 2 1 1 1 2 2 2 1 2 2 3 5 2 1 3 5 10 12 14 14 11 12 13 7 5 7 6 5 2 8 8 8 6 3
10 10 10 9 9 9 10 10 10 8 6 3 3 4 1 1 5 5 3 2 5 1 1 0 0 2 4 2 4 2 4 7 4 2 3 2 1 1 3 5 6 4 3 4 5 7 5 5 6 4 4 3 3 3 3 3 2 1 2 2 4 3 5 4 4 2 2 4 9 8 6 4 4 6 6 9 5 7 8 9 11 7 4 8 2 2 5
10 10 9 9 9 9 10 10 10 8 5 3 3 4 5 3 5 5 2 2 4 4 3 5 3 1 0 2 2 2 3 9 7 4 1 2 1 6 7 4 1 2 2 3 5 4 4 4 5 4 4 5 2 4 3 2 2 2 4 2 1 1 3 3 4 3 2 5 7 4 4 1 1 2 6 5 7 7 12 7 9 11 10 5 7 7 8
9 10 10 9 9 10 10 10 10 8 5 5 4 6 7 6 7 5 2 2 5 5 3 1 4 0 1 1 2 2 1 3 3 9 4 2 2 5 5 3 6 2 1 3 3 5 5 6 7 6 7 7 8 5 6 1 3 2 0 3 2 2 1 1 3 2 3 3 5 5 2 1 2 1 4 5 4 10 13 13 13 10 11 12 11 10 10
9 10 10 9 10 10 10 11 10 9 6 5 5 6 6 5 6 4 3 3 3 8 4 4 2 3 3 3 1 5 2 5 5 7 4 3 3 2 1 1 0 1 2 4 5 4 2 4 4 2 3 1 5 9 14 8 7 7 9 8 2 4 3 1 1 2 2 2 1 2 2 5 4 3 7 6 3 3 4 10 12 10 9 10 10 9 8
9 10 10 10 10 10 11 11 11 10 9 5 6 7 8 7 5 3 2 2 5 6 3 5 2 2 4 3 3 5 5 2 0 4 2 1 1 3 1 3 3 1 2 3 1 1 2 3 1 2 2 1 2 2 5 4 5 6 7 8 9 0 3 2 1 1 4 2 4 6 7 5 5 2 4 4 2 4 3 4 4 8 5 8 9 9 8
9 10 10 10 11 11 12 12 12 11 11 8 6 8 9 8 7 5 3 1 3 7 3 3 3 4 4 4 3 5 2 3 2 0 2 4 2 1 3 7 6 6 3 2 2 2 1 1 0 0 1 2 0 1 3 2 2 0 2 5 6 6 1 2 3 2 4 6 6 4 3 4 3 2 4 5 5 3 3 1 2 5 5 8 8 8 7
9 10 10 11 12 12 13 13 13 12 11 9 6 7 10 10 7 5 4 3 1 3 3 4 5 3 1 2 1 2 1 1 3 0 2 1 3 6 3 5 4 1 2 2 2 2 0 2 1 1 0 1 1 1 1 2 2 2 7 8 11 10 4 2 2 2 3 5 6 3 4 2 1 5 6 7 6 7 6 2 3 2 4 6 7 7 6
10 11 11 12 13 14 14 14 14 13 12 9 6 6 9 9 6 4 1 2 1 1 4 5 0 0 2 5 3 3 2 1 1 3 0 1 3 7 8 3 1 1 1 0 1 2 1 0 1 2 1 0 1 2 2 1 1 3 2 8 9 6 3 3 5 3 2 2 3 3 2 2 2 7 6 7 9 6 1 3 1 3 4 4 5 5 5
10 11 12 13 14 14 15 15 15 14 13 10 6 6 6 7 6 3 2 1 1 1 3 5 6 5 2 2 1 1 1 1 3 1 0 3 2 3 5 3 1 2 2 1 0 1 1 1 0 1 1 2 1 1 1 1 1 1 3 2 1 3 2 5 3 2 5 6 4 4 3 2 3 7 9 7 4 2 1 2 2 2 4 9 9 8 7
11 12 12 14 14 15 15 15 15 15 14 12 7 7 9 8 8 3 3 2 1 1 2 2 2 1 5 7 4 3 1 3 3 2 3 4 3 10 5 4 2 1 2 1 4 1 1 0 0 0 2 1 2 2 0 2 1 1 2 2 1 3 1 2 3 4 3 1 4 4 3 0 7 8 6 5 1 3 4 1 2 2 9 8 9 10 9
11 12 13 14 15 15 16 16 16 15 15 12 6 4 9 8 6 2 0 0 2 3 6 6 6 7 4 5 7 6 7 8 4 4 2 1 5 8 6 4 6 3 2 2 0 0 1 1 0 1 2 1 0 2 4 6 4 2 1 2 3 1 1 2 2 1 1 3 5 3 2 1 10 12 3 6 3 2 1 4 9 9 9 10 8 9 8
11 12 14 15 15 16 16 16 16 15 14 13 7 4 6 4 3 4 4 3 1 2 3 3 3 5 4 5 3 4 4 5 3 2 2 0 1 2 2 1 2 1 0 1 3 0 0 1 2 1 1 1 1 2 4 3 4 10 4 2 4 3 2 3 1 1 3 3 3 1 1 3 8 6 4 3 1 2 2 5 8 6 7 8 8 7 8
12 13 14 15 16 16 16 16 17 16 15 13 10 3 3 5 3 3 2 3 3 3 1 2 2 3 3 4 4 5 4 5 3 2 0 2 3 3 3 2 0 1 0 1 2 0 3 1 1 2 3 3 3 3 2 3 4 1 7 4 4 9 3 1 6 3 1 3 3 4 5 5 5 5 6 6 8 7 9 8 8 8 7 7 9 9 9
12 13 15 16 16 17 17 17 17 16 15 13 7 2 4 5 2 3 1 4 2 1 1 1 1 1 3 4 3 4 4 4 3 0 0 2 2 1 2 1 1 1 1 1 3 4 2 4 2 5 3 3 3 6 8 4 3 4 5 7 7 3 8 4 8 9 11 11 9 7 6 6 7 8 7 9 10 9 8 10 10 8 7 7 9 9 9
12 14 15 16 17 17 17 17 17 17 16 13 5 3 4 6 1 7 3 2 1 1 4 7 3 2 1 3 3 3 4 3 2 2 1 1 3 1 0 1 0 2 1 3 2 5 3 2 2 2 5 4 2 4 4 5 3 5 6 3 2 3 1 2 7 7 1 6 5 7 8 8 10 11 10 10 9 8 8 10 10 9 9 9 8 8 8
12 14 15 16 17 18 18 18 18 18 16 15 11 6 6 3 1 4 3 1 0 1 2 1 3 3 3 1 4 3 2 3 4 4 3 2 1 3 2 2 2 4 6 4 3 5 2 3 2 3 8 3 1 6 3 6 6 3 7 4 3 3 1 12 9 9 6 6 9 10 10 10 9 7 8 10 10 10 9 8 8 8 7 7 7 7 8
12 14 15 16 18 19 19 19 19 18 17 17 9 3 2 3 3 4 3 1 1 3 3 0 1 3 3 4 5 3 3 3 1 4 4 3 0 0 1 0 2 1 2 3 4 5 3 4 3 3 5 7 4 5 5 6 9 6 6 3 3 5 3 5 4 8 10 13 12 12 13 13 12 10 8 7 7 10 11 11 11 11 11 11 10 8 6
12 14 15 16 18 18 19 19 19 19 19 17 9 5 4 3 3 6 3 1 1 2 1 2 0 2 2 5 2 3 2 3 4 3 2 2 2 2 2 4 8 7 8 8 4 4 3 4 5 8 6 6 4 5 4 8 8 5 7 8 8 10 10 9 8 10 6 5 8 6 7 7 7 9 9 10 9 10 10 9 10 10 10 9 10 9 8
12 14 15 16 18 18 19 19 18 19 18 17 8 6 5 1 5 4 3 4 4 1 3 3 2 2 2 5 4 5 4 2 1 3 4 6 7 6 11 11 9 8 6 6 6 5 4 6 6 3 4 4 6 6 4 5 7 8 7 4 2 7 8 4 3 5 8 10 11 9 12 12 10 10 9 8 8 9 10 9 8 8 7 6 7 7 8
12 14 15 16 17 18 18 18 18 17 18 14 6 5 5 3 6 6 5 4 2 0 1 2 3 3 3 2 1 4 3 4 4 4 4 6 9 10 9 7 6 4 4 4 3 3 3 3 1 5 5 6 6 5 4 9 9 9 9 12 13 10 9 10 12 14 13 12 11 8 9 11 12 11 10 9 7 9 9 8 7 6 5 5 6 5 6
12 14 15 16 17 17 18 18 18 17 17 7 2 1 1 2 5 6 7 4 1 0 3 2 2 1 2 2 3 4 8 10 9 9 8 7 8 8 9 8 7 5 5 4 3 5 2 3 3 4 6 4 4 2 5 5 9 8 10 12 12 11 10 9 7 10 11 10 10 10 12 12 11 11 11 10 9 8 9 9 7 6 6 5 6 5 4
13 15 16 16 17 17 18 17 17 17 14 3 1 1 0 1 1 3 8 5 3 2 1 3 3 0 3 2 3 7 9 8 7 6 8 7 6 6 5 5 7 6 7 5 5 3 2 4 4 5 6 7 4 3 6 6 9 8 9 10 10 12 11 11 11 11 12 11 12 11 10 10 9 8 7 6 7 7 7 7 8 9 8 6 5 5 4
13 15 15 16 17 17 17 17 16 12 6 3 1 1 0 1 2 7 9 6 3 1 2 4 1 1 0 2 1 2 4 4 4 4 4 4 7 7 9 6 4 4 4 4 3 3 5 5 4 5 6 3 4 4 5 7 9 9 10 12 9 10 10 10 10 12 12 13 14 13 12 10 8 9 7 7 7 6 7 7 8 9 11 8 6 6 6
13 15 16 16 17 18 17 16 15 8 4 7 9 9 9 11 11 10 6 4 0 0 0 3 2 1 1 1 3 5 3 1 3 1 4 1 4 2 4 3 4 5 7 6 4 3 3 4 4 7 5 3 4 4 6 8 10 10 10 9 9 9 10 10 10 11 12 10 8 9 8 8 8 10 10 9 8 8 7 7 7 7 7 8 6 5 4
13 15 16 17 18 17 17 16 16 13 8 2 2 1 2 6 6 9 6 1 0 2 0 2 1 1 1 3 2 0 1 1 4 1 3 2 2 4 4 3 2 4 3 5 3 4 4 4 6 5 4 6 3 4 7 8 9 9 8 7 8 8 7 7 7 8 8 9 8 8 9 10 10 9 9 8 8 7 7 7 6 6 7 7 6 6 6
14 16 17 18 17 17 17 12 5 1 1 3 1 1 1 4 4 7 3 2 3 1 1 1 2 3 1 1 2 1 1 1 3 1 4 2 1 3 1 3 1 5 4 1 3 2 4 3 5 5 6 3 4 4 4 8 8 6 5 7 7 9 8 9 7 7 7 6 7 9 9 8 8 6 7 6 7 8 7 5 5 6 6 5 5 5 5
15 17 18 19 20 12 5 3 2 1 1 2 1 1 4 7 6 2 1 1 2 0 1 2 2 3 2 2 2 1 1 2 1 1 2 1 3 2 2 2 5 4 1 3 4 3 4 4 2 4 3 3 3 3 6 7 9 6 5 6 6 6 6 7 7 6 6 6 8 10 11 7 6 6 6 6 6 6 4 6 7 6 5 4 4 4 4
16 18 20 17 6 1 1 1 2 1 2 1 5 8 7 4 1 1 0 1 1 2 1 0 1 3 4 3 0 1 2 3 0 3 1 2 2 0 3 3 4 1 3 4 4 4 4 4 5 5 4 4 4 4 4 5 7 9 9 9 10 9 8 7 8 8 8 8 8 7 6 6 4 4 7 5 5 5 6 6 4 5 5 5 4 5 4
18 18 6 2 1 0 0 0 0 0 3 3 4 1 2 4 0 1 1 1 0 1 1 0 0 3 3 5 2 1 1 1 0 2 1 1 1 1 0 2 1 1 4 2 2 2 3 3 3 4 4 5 5 6 6 7 8 8 9 8 9 9 9 8 8 8 7 6 6 7 6 5 5 5 6 5 5 7 6 6 5 4 5 5 5 5 5
10 4 2 2 0 0 1 2 1 2 1 0 1 1 1 0 0 0 1 1 0 1 1 1 1 2 5 5 1 1 1 2 4 2 2 2 2 0 1 2 1 2 1 2 0 1 3 2 2 3 5 2 3 3 5 6 5 6 6 7 8 9 8 6 6 7 6 5 6 7 7 7 6 4 5 6 5 5 5 5 4 5 5 5 4 4 5
2 1 1 1 0 0 1 1 3 1 1 0 0 0 1 0 1 0 0 0 1 1 1 1 1 3 4 7 4 1 2 1 4 3 2 1 1 2 1 1 1 2 2 2 2 0 3 3 1 2 4 2 4 5 7 7 7 5 6 5 5 6 6 7 8 7 7 6 7 7 7 7 6 6 5 5 5 5 4 4 5 5 5 4 6 9 6
1 3 2 2 4 2 1 2 0 1 0 0 0 1 0 0 1 1 0 0 0 1 1 1 2 3 4 4 3 2 1 0 1 3 3 2 2 1 1 0 0 1 1 1 1 2 2 3 2 3 3 4 6 4 5 6 6 5 5 4 5 4 9 8 4 5 7 8 6 6 6 7 7 6 5 5 6 7 7 7 6 7 6 5 7 7 7
2 2 3 6 5 7 1 1 0 0 1 0 1 0 0 1 0 0 0 2 2 0 0 1 5 4 3 3 3 2 1 1 0 2 2 1 1 1 1 1 0 1 1 1 3 2 2 2 3 3 4 5 6 6 7 6 3 4 4 4 3 5 5 7 8 5 5 7 7 6 5 6 6 6 6 6 6 7 6 5 6 6 6 6 8 8 8
16 10 5 3 2 1 0 0 1 1 1 1 1 1 0 0 1 2 1 1 1 1 0 3 3 2 3 2 4 2 1 1 1 1 2 0 1 1 1 0 0 1 1 1 1 2 3 4 3 5 5 7 7 7 6 7 6 5 3 3 4 2 4 6 3 3 8 10 7 7 6 7 5 4 4 5 6 5 5 5 5 5 5 3 6 8 7
7 4 2 2 0 1 0 1 1 2 2 0 1 1 0 0 1 0 0 1 0 0 1 3 2 4 3 2 2 0 1 1 1 1 1 0 1 1 0 1 0 1 1 1 1 3 3 2 5 9 8 9 7 8 9 7 5 5 3 4 4 6 5 5 5 6 5 5 7 6 7 7 6 2 3 5 4 7 6 5 5 5 5 8 10 9 7
2 0 1 1 1 0 1 2 2 0 1 1 1 1 2 3 2 2 2 2 0 4 3 3 4 5 6 2 2 2 1 1 1 2 1 0 2 0 1 2 1 0 1 1 0 1 2 3 5 7 10 9 8 9 9 9 8 5 5 2 3 7 5 4 4 5 4 5 6 7 6 6 5 4 4 4 4 6 6 5 3 4 2 3 5 6 6
1 1 1 3 3 2 0 1 1 1 1 2 2 4 5 6 4 5 2 2 3 5 5 5 5 7 4 1 2 2 0 1 1 0 1 0 1 0 1 0 1 1 1 0 1 2 5 7 7 7 8 10 11 10 9 6 5 7 7 5 4 5 5 5 4 4 4 5 5 5 5 4 5 5 5 4 4 5 6 5 5 5 3 2 2 5 4
1 1 0 0 1 1 1 1 3 2 2 3 4 4 6 7 5 4 3 4 7 6 5 4 6 6 5 2 1 1 0 0 1 0 1 2 1 0 1 1 0 1 1 1 1 3 5 6 8 7 9 11 12 11 9 7 6 5 6 5 5 5 4 4 4 6 5 4 3 5 5 4 4 4 4 3 4 5 6 6 6 6 2 0 2 3 4
1 0 0 1 2 1 3 3 2 3 4 5 6 6 6 3 5 5 3 4 5 6 7 6 6 4 2 2 2 2 1 1 2 2 0 1 0 1 1 0 0 0 1 2 1 7 8 7 7 8 11 10 11 10 9 8 6 8 6 5 5 5 4 5 5 5 4 4 5 5 5 5 5 4 3 4 3 4 5 6 6 5 4 1 2 1 0
2 1 0 1 1 2 2 4 3 4 7 8 7 5 6 4 4 5 6 5 6 6 8 7 3 2 1 0 2 2 2 0 1 0 0 1 1 1 1 1 1 1 1 1 3 11 9 9 7 12 12 11 9 10 8 8 9 8 7 7 5 5 4 5 4 2 1 2 4 5 5 4 4 3 1 3 1 3 6 6 6 5 4 2 0 1 4
1 1 1 1 0 2 5 4 4 5 2 1 2 3 5 7 6 4 3 5 5 6 5 5 2 1 2 1 1 1 1 0 1 0 1 1 1 1 1 1 2 2 1 1 6 10 8 8 8 11 11 10 9 10 9 9 9 8 7 6 5 5 5 6 5 1 1 5 5 5 5 5 2 2 2 1 1 4 4 4 5 4 3 4 4 1 2
1 1 2 2 1 1 1 2 3 2 2 2 2 2 3 5 4 4 2 3 5 5 3 2 1 1 2 2 0 1 0 1 2 1 2 2 1 1 2 2 2 0 3 5 8 10 8 7 8 11 10 10 9 10 10 10 8 7 7 6 5 4 5 6 6 3 2 5 4 6 4 3 5 4 3 4 4 5 4 1 1 2 4 3 4 3 2
0 1 2 2 5 6 6 6 4 2 6 3 2 2 2 5 4 4 3 6 5 5 3 1 2 1 1 1 1 1 1 1 1 2 1 1 1 2 2 4 3 7 7 9 9 7 7 7 7 8 8 11 10 10 10 9 9 8 7 6 5 5 5 4 4 4 5 5 5 3 1 1 4 3 3 2 1 0 2 2 3 1 6 5 5 3 1
Wind_Direction
308 320 319 324 326 330 331 335 335 336 339 337 353 313 231 212 277 245 288 143 154 159 249 226 227 238 257 270 266 268 275 357 19 11 232 232 178 324 320 327 346 333 11 342 338 352 347 17 306 80 93 75 36 340 9 358 9 62 18 353 347 347 81 123 281 253 299 299 310 303 214 214 263 319 323 186 200 200 178 178 185 150 162 81 50 82 247
312 322 322 327 330 332 334 336 333 336 343 335 324 289 260 341 357 305 277 162 182 204 217 219 237 245 250 259 290 295 326 338 279 235 71 299 121 206 277 347 340 287 359 338 324 21 41 350 357 67 30 34 358 42 41 27 46 33 17 61 299 32 320 87 169 78 4 341 343 319 23 40 58 16 20 11 26 47 41 34 30 104 213 162 130 179 255
316 320 323 326 334 335 335 336 330 334 335 337 340 300 324 294 245 241 291 201 208 213 243 278 259 259 299 289 274 308 281 250 276 352 346 352 317 27 352 218 349 327 249 270 343 340 338 345 340 91 95 64 37 49 47 46 58 42 9 351 309 100 265 73 87 150 156 193 231 326 312 325 306 50 27 18 23 34 48 60 358 83 335 48 82 91 120
316 320 324 326 331 334 334 334 331 334 334 335 273 262 268 148 43 244 271 298 208 281 291 303 283 311 303 313 301 289 286 212 62 35 314 287 322 340 350 338 25 341 355 7 356 329 340 354 321 9 58 194 61 61 63 44 39 16 17 5 20 54 8 101 132 132 144 180 183 206 214 322 37 27 37 14 28 54 91 106 78 97 295 48 340 148 137
319 322 325 327 333 331 333 333 329 327 331 342 330 285 259 70 191 164 207 153 252 256 214 252 251 259 249 162 250 237 248 260 117 63 325 260 262 28 298 187 118 260 12 353 354 354 338 335 350 338 89 32 61 54 47 46 36 22 24 9 29 52 46 6 64 84 129 112 115 163 58 54 43 44 27 28 25 52 76 94 176 144 101 31 334 136 125
324 325 325 331 332 331 331 332 326 328 328 342 304 274 221 155 285 302 260 245 211 195 247 217 260 244 269 183 277 331 343 341 67 188 226 312 282 157 347 3 7 326 189 116 182 343 317 356 22 30 360 47 10 41 15 38 353 46 50 24 68 66 76 338 54 41 94 97 111 100 79 64 66 51 38 34 33 58 72 49 123 121 139 159 210 147 122
324 326 330 331 328 329 332 329 331 333 334 334 267 277 225 177 298 266 274 279 267 197 214 196 211 238 255 221 177 318 332 9 342 42 346 223 7 75 42 311 262 210 237 105 190 195 119 322 30 82 335 45 336 32 2 12 44 74 53 44 37 69 351 347 27 47 37 40 90 103 95 76 58 41 32 20 22 51 56 52 16 35 95 148 146 110 72
321 326 327 329 329 330 331 333 338 337 330 314 243 236 310 212 184 294 350 309 326 298 276 193 182 207 110 57 305 108 142 239 354 339 308 52 316 243 96 270 303 351 355 12 271 107 138 142 84 76 65 20 72 146 148 245 335 83 53 95 336 90 285 352 319 57 54 107 15 41 87 80 68 34 27 24 12 33 37 44 22 42 58 67 90 97 98
323 325 325 329 329 328 333 336 340 336 339 287 225 243 206 284 334 289 313 298 245 272 256 233 151 125 214 104 202 172 233 139 147 294 341 283 122 349 23 22 26 4 9 2 6 33 61 53 41 338 109 185 169 120 242 126 349 50 87 54 349 67 189 36 339 50 342 78 99 127 99 94 75 39 22 11 13 31 17 40 337 59 117 106 95 74 112
318 319 321 328 328 332 334 336 338 333 326 274 282 257 194 260 246 240 222 260 259 189 247 187 344 213 215 184 161 185 228 190 156 130 276 285 119 18 360 55 63 351 360 323 24 350 5 37 8 322 309 322 154 145 132 128 133 263 84 142 110 139 145 143 183 103 201 106 130 120 108 66 35 24 359 347 3 79 60 41 37 19 113 85 106 74 106
315 323 324 328 330 331 333 334 335 339 330 316 309 296 319 309 335 317 258 253 297 214 199 189 160 214 334 174 260 1 258 147 171 123 7 67 21 70 31 2 124 105 30 329 340 324 337 351 319 324 301 278 216 140 119 148 199 186 137 137 231 167 158 172 146 139 166 124 117 103 62 117 117 286 332 353 27 61 66 38 35 45 58 73 66 81 75
320 329 327 329 330 331 330 330 330 330 323 295 292 279 264 275 280 265 306 339 275 256 122 342 113 217 252 119 192 248 28 50 14 95 103 9 50 25 36 30 75 342 201 293 331 353 343 304 265 254 274 285 280 208 145 132 1 349 130 142 170 198 104 181 163 111 167 160 106 64 147 124 106 296 340 351 20 73 81 60 44 64 74 79 73 69 78
318 325 326 331 329 329 327 326 325 323 318 297 283 271 285 314 305 280 279 285 288 316 137 176 147 177 194 220 135 250 16 29 28 77 88 98 15 9 311 357 36 24 44 36 350 330 311 292 311 336 284 94 18 54 43 41 17 18 14 347 128 179 166 210 76 140 73 101 111 157 146 142 152 81 23 343 8 6 56 53 36 45 81 95 98 106 109
318 322 325 329 327 327 326 324 325 321 316 312 279 270 280 286 285 301 318 16 300 292 357 25 194 98 63 35 27 348 52 312 269 79 74 114 360 306 169 174 87 257 28 33 318 263 342 32 20 19 307 48 358 29 25 64 58 32 5 355 347 327 193 122 155 43 135 82 44 81 118 109 27 4 2 17 3 4 23 70 32 17 76 97 111 112 117
315 319 325 328 328 327 327 327 326 323 317 307 286 278 267 256 245 261 323 342 294 300 339 103 323 70 75 12 32 26 3 299 18 220 178 101 225 231 304 52 52 41 28 43 344 48 122 101 53 105 320 58 63 299 346 33 345 6 78 359 357 27 7 313 132 279 110 131 111 109 177 165 144 38 334 1 1 319 267 139 76 8 46 110 114 125 133
320 324 330 332 331 330 329 329 328 325 319 311 286 268 261 251 258 270 248 231 320 351 336 68 17 20 334 201 204 188 200 306 215 308 64 140 200 211 112 70 81 44 311 241 188 107 91 109 217 104 155 128 151 72 336 345 10 67 45 40 32 4 360 34 136 173 77 125 133 155 173 97 62 329 318 321 335 323 306 75 59 14 7 99 114 122 138
321 326 331 334 336 333 331 329 327 324 321 313 295 283 278 253 220 225 289 289 239 213 3 52 359 359 28 344 24 3 343 243 327 85 221 265 277 101 120 143 78 188 256 38 313 67 60 63 214 120 73 63 111 170 142 33 32 341 62 34 27 23 346 23 47 51 68 124 86 113 48 129 12 317 312 321 308 297 353 128 253 30 31 62 92 90 86
321 327 333 336 336 333 330 329 326 324 320 307 281 270 266 287 277 248 238 208 234 323 352 19 34 32 25 265 117 288 319 360 359 74 128 242 196 135 142 117 69 3 350 54 22 73 52 53 85 159 144 318 270 13 114 111 38 313 358 61 37 332 360 45 104 102 76 93 103 97 109 87 342 321 310 307 319 330 168 202 96 13 75 69 74 66 62
324 328 334 334 333 331 330 329 326 324 322 316 304 261 241 237 251 234 242 272 230 109 305 71 272 135 23 9 44 324 259 81 340 80 344 4 344 325 93 103 120 10 327 73 45 88 113 300 339 91 112 331 38 91 63 52 215 45 360 76 92 14 24 40 49 31 62 74 77 91 70 114 323 311 307 316 265 130 133 203 258 68 84 75 82 83 76
323 329 331 332 330 332 331 329 327 323 323 324 327 271 280 289 273 196 131 359 325 68 359 31 18 52 57 41 17 22 5 30 3 72 52 95 303 343 36 8 336 26 358 74 50 231 101 152 357 14 52 107 300 156 61 77 74 58 137 360 91 285 23 69 44 293 57 37 108 116 101 3 1 320 326 2 92 96 88 63 76 86 92 91 78 87 94
324 327 330 330 331 332 332 329 326 324 325 327 330 298 310 278 244 234 186 136 49 68 14 13 66 45 44 64 52 38 65 78 45 79 291 209 275 81 81 213 266 57 231 96 141 283 140 97 26 16 180 120 227 54 135 139 67 27 36 121 99 306 139 112 114 295 103 66 76 144 12 360 348 0 95 4 48 217 160 115 95 79 88 95 99 89 96
323 326 330 331 331 332 331 330 327 326 328 327 322 246 262 266 270 265 267 139 119 132 185 126 117 125 87 127 122 76 66 69 83 123 63 350 333 120 160 124 153 161 244 90 97 354 5 145 66 49 63 31 25 93 227 98 65 26 22 34 61 352 76 12 105 334 87 118 99 85 84 61 20 24 59 54 39 68 94 95 93 99 84 90 98 98 94
320 326 329 329 331 332 332 330 329 327 329 328 328 263 270 278 303 301 19 59 20 26 335 344 25 53 137 94 77 105 115 127 133 183 245 107 46 42 105 98 266 228 142 131 153 135 132 95 134 171 79 44 137 90 50 55 96 352 62 1 121 134 94 104 78 74 85 79 92 102 81 71 65 51 50 61 64 57 75 89 92 74 87 94 103 108 111
322 327 329 329 330 332 332 331 330 329 326 319 298 265 278 285 324 24 351 92 124 65 343 356 52 20 25 83 139 141 135 152 178 184 176 127 110 66 8 181 208 32 44 37 119 132 157 120 188 94 107 149 150 64 108 81 80 137 109 104 71 2 14 63 94 176 87 64 83 91 93 83 74 73 69 67 68 73 80 86 88 97 101 104 108 117 124
324 328 328 330 330 332 333 332 331 328 325 323 325 241 217 282 30 75 56 144 237 87 128 306 342 252 102 134 142 135 167 174 176 168 142 165 164 127 154 224 182 133 128 144 108 76 81 88 47 67 88 21 75 96 89 114 141 170 84 89 109 23 19 82 65 80 66 106 93 91 90 83 79 78 80 77 74 73 69 76 83 90 94 97 108 115 115
326 329 330 331 332 332 333 333 333 328 326 325 327 315 6 302 15 20 54 323 145 115 102 128 237 339 46 89 74 61 30 25 101 136 153 128 103 182 181 194 39 21 97 100 97 88 77 56 59 51 83 76 11 83 57 39 88 80 96 132 156 161 232 72 148 101 103 102 97 102 95 85 84 85 78 79 85 90 86 87 90 90 87 81 70 59 64
329 331 331 331 332 332 334 334 332 330 329 330 335 330 321 276 79 77 53 52 51 31 22 75 260 100 65 63 37 110 83 47 3 31 59 105 44 346 29 66 80 75 78 77 73 89 57 71 58 74 56 85 63 64 66 61 62 76 70 71 85 92 88 116 114 111 117 131 145 158 110 107 105 95 97 96 92 90 87 82 77 76 79 75 75 63 58
331 331 330 331 332 333 333 333 331 330 330 329 323 288 266 230 80 76 49 73 95 163 139 105 82 128 309 70 54 38 29 55 55 72 62 51 43 56 76 79 68 52 32 51 31 22 60 83 101 119 102 87 79 46 31 78 77 66 57 66 92 106 138 146 99 96 103 97 95 93 104 106 110 119 115 102 97 92 89 87 88 84 79 79 81 80 67
331 329 328 329 330 331 331 331 331 330 331 331 304 318 330 20 66 49 26 2 90 24 98 84 20 19 69 28 55 124 146 130 94 74 64 61 60 55 57 65 81 90 71 63 87 84 74 82 128 91 99 125 95 95 72 63 63 69 68 71 70 72 82 94 108 109 106 111 115 116 113 119 132 131 125 118 110 102 101 97 95 98 96 96 92 97 100
326 328 328 329 328 329 328 329 330 330 333 320 324 346 4 38 55 39 358 342 19 100 81 92 61 289 292 60 70 61 51 38 36 44 44 58 68 72 72 69 59 58 86 96 105 78 36 75 18 34 61 57 81 131 81 93 83 74 69 72 74 72 66 68 79 98 110 114 115 114 117 120 123 121 121 125 132 130 124 127 131 127 126 119 107 103 106
328 327 328 327 327 325 326 327 328 329 332 311 332 26 72 130 292 38 354 344 334 86 101 87 104 300 16 319 71 63 71 59 57 54 55 46 44 55 48 56 50 53 56 28 41 44 51 43 41 45 55 50 68 84 104 100 95 94 90 86 86 90 89 87 89 94 100 100 99 100 99 103 110 115 106 118 126 136 139 145 154 150 147 135 138 141 134
323 325 323 324 323 323 322 322 323 328 317 323 36 133 182 224 252 311 313 302 310 41 83 91 63 12 136 312 90 149 114 91 63 39 27 22 55 51 55 53 82 40 88 86 64 56 44 42 63 65 79 44 58 85 70 83 96 97 106 105 115 116 118 115 112 108 107 110 113 111 113 121 128 129 142 147 141 142 149 160 162 152 146 147 156 154 154
323 321 322 321 321 320 317 315 313 314 285 285 271 262 266 270 277 279 281 290 63 280 181 84 110 195 75 292 354 4 17 55 69 63 73 80 105 100 84 99 67 63 21 63 20 78 27 67 40 56 20 36 73 86 89 87 98 108 103 106 110 118 122 129 125 123 128 133 131 128 136 140 143 148 151 151 148 151 152 163 173 156 136 143 152 155 152
321 321 320 319 317 317 313 309 302 296 283 274 22 121 202 204 264 263 280 249 319 241 118 109 107 72 71 298 57 317 54 33 101 37 60 347 99 73 96 76 59 83 34 87 72 59 41 58 76 87 45 41 38 76 86 94 101 108 118 121 118 115 120 114 114 116 116 119 132 135 136 138 144 147 148 153 159 168 171 176 175 152 147 152 161 170 173
319 320 319 316 313 309 306 300 319 296 307 277 90 94 340 298 286 279 310 60 38 354 55 52 95 83 61 337 109 242 173 283 119 161 125 212 198 129 154 58 8 80 122 116 56 109 106 116 141 76 89 87 53 83 107 125 120 127 119 110 103 98 91 88 89 103 108 114 116 130 133 137 139 147 157 160 154 165 170 169 150 120 111 129 140 152 163
320 318 317 312 305 298 289 257 225 275 280 260 161 234 266 287 290 280 84 85 127 209 17 131 115 146 162 121 129 234 230 92 112 72 69 147 34 23 72 91 58 8 94 80 113 95 110 173 86 103 153 82 75 120 138 140 145 143 122 112 113 103 106 114 116 104 100 100 103 115 130 140 140 151 151 148 156 165 167 115 109 113 110 104 113 112 77
317 318 313 303 289 181 255 210 202 192 226 241 287 302 289 328 318 6 23 75 35 114 147 44 115 196 151 153 86 303 27 101 251 80 154 74 116 339 57 45 91 136 34 26 35 59 44 48 84 75 54 116 131 126 127 120 113 108 104 107 110 107 106 103 108 110 112 111 109 105 111 122 127 113 102 110 112 109 96 85 98 112 131 138 120 105 120
314 311 302 293 235 339 37 348 91 269 4 344 326 5 6 19 37 319 352 23 226 87 278 144 183 151 89 93 136 260 46 145 124 107 21 111 62 25 94 104 174 88 67 61 19 346 70 35 63 93 82 91 110 92 93 100 105 108 114 116 114 118 127 138 140 135 136 135 127 135 135 133 131 139 129 123 110 111 127 136 135 125 122 131 131 128 110
306 288 248 239 206 239 157 210 20 41 333 330 57 57 30 349 52 356 270 219 48 359 272 102 224 147 101 79 65 344 130 158 91 68 103 302 95 313 4 88 304 78 112 84 348 317 53 21 37 69 100 82 63 106 111 98 98 114 123 127 136 146 154 152 144 136 145 160 165 157 147 144 145 124 115 119 119 109 107 100 101 99 88 83 103 131 128
263 277 260 231 98 248 355 13 345 6 47 74 324 99 132 251 127 238 287 53 336 278 94 213 273 107 120 131 134 13 295 86 125 173 134 45 355 147 237 83 160 95 144 123 212 32 122 131 93 81 83 92 102 79 81 88 83 82 95 85 105 132 111 113 109 113 108 102 98 97 105 109 110 114 116 111 115 105 92 85 91 97 100 89 73 82 87
262 294 328 360 339 339 163 199 235 13 52 32 28 305 83 282 251 146 98 216 182 230 219 155 68 75 91 105 94 123 283 98 243 129 105 102 252 66 65 118 226 94 114 121 254 84 94 88 120 112 177 158 129 114 92 80 76 67 71 90 67 101 124 107 117 126 116 108 94 92 99 105 101 100 105 107 109 107 110 105 94 99 107 109 99 110 114
360 247 293 296 271 267 243 55 40 91 321 244 112 262 168 203 342 22 144 139 240 239 324 96 94 105 109 115 136 115 342 290 94 86 102 68 300 110 172 106 53 127 128 211 145 95 110 133 131 136 191 144 120 110 104 100 91 90 90 83 84 80 99 135 153 158 130 116 114 108 108 111 109 104 95 92 92 90 80 80 89 88 85 84 103 117 112
296 267 198 262 250 243 152 77 251 126 105 4 36 36 335 107 246 149 168 290 314 73 312 35 105 102 57 52 30 23 165 240 77 30 71 174 283 57 86 52 102 76 218 113 99 138 150 141 137 194 176 140 139 126 122 115 118 114 130 133 127 105 97 102 122 146 128 126 129 123 112 97 96 106 121 130 116 100 102 113 121 126 123 105 95 116 122
264 239 204 225 136 8 11 33 294 48 3 55 120 161 251 183 261 7 107 214 181 24 111 123 189 107 88 22 117 124 21 2 11 70 33 50 88 51 63 73 85 253 12 52 138 151 183 113 158 164 150 141 142 135 137 142 128 129 105 53 90 106 78 77 69 63 69 94 104 108 109 112 113 110 67 78 105 133 133 113 114 115 105 106 126 146 152
321 339 193 32 19 149 61 334 306 126 188 218 163 184 173 189 191 192 202 214 131 179 123 103 133 102 106 95 43 15 99 143 311 95 209 91 57 12 122 183 216 63 122 213 145 124 70 98 141 141 139 146 141 132 124 125 142 157 141 136 98 111 118 112 96 92 91 98 117 117 114 125 134 147 132 139 126 124 122 122 109 89 109 114 108 134 165
259 144 80 77 7 311 164 176 159 239 265 145 213 197 181 216 183 210 220 117 121 140 146 153 102 94 89 90 129 199 268 94 66 118 129 91 97 44 304 48 84 123 266 158 132 159 142 159 160 157 144 135 127 125 129 133 124 124 146 152 156 135 132 129 134 125 144 130 124 112 126 135 134 127 127 134 116 96 108 123 109 101 82 64 151 150 162
295 321 130 76 106 239 240 183 216 213 175 183 215 218 212 211 205 177 173 150 158 165 137 109 109 128 129 159 49 19 53 87 102 313 54 62 94 239 314 93 244 174 156 199 165 122 146 168 164 161 133 129 129 131 131 124 125 111 109 93 82 78 80 88 102 112 107 92 94 116 112 92 89 96 93 83 98 130 134 128 124 118 118 113 103 110 162
283 215 72 117 224 184 207 247 203 236 249 211 203 213 234 229 130 157 173 127 129 98 94 84 94 94 51 338 74 143 101 47 67 349 16 126 45 43 27 15 309 265 188 160 206 133 149 161 163 141 136 133 132 131 133 134 129 119 111 106 103 94 86 84 70 69 71 105 102 98 97 88 76 62 77 96 91 95 92 107 122 139 143 137 142 180 182
280 291 196 217 197 178 236 245 215 238 232 224 209 195 162 138 95 95 101 110 106 115 124 122 161 99 112 141 88 63 60 351 86 240 324 48 98 174 154 180 173 239 264 174 152 138 154 160 152 139 137 139 137 132 133 132 131 131 129 128 132 128 117 104 98 77 38 104 109 111 119 122 116 143 161 116 115 123 134 138 122 117 130 122 124 197 209
240 275 316 280 307 271 245 234 235 248 279 348 103 82 92 102 97 111 110 80 81 92 67 48 47 87 156 112 88 81 119 235 117 105 82 117 155 187 123 162 217 197 234 73 115 146 148 142 132 135 139 142 135 129 123 124 126 128 122 120 113 116 117 116 100 89 35 67 67 76 91 90 69 30 61 66 165 127 109 122 143 156 171 174 178 205 98
263 228 238 217 190 248 181 237 236 161 89 22 13 40 92 121 123 124 74 95 95 84 72 122 170 113 82 40 47 113 206 96 83 155 153 176 189 159 183 197 221 151 136 126 121 133 135 132 129 138 134 131 127 121 117 122 120 118 116 119 125 125 118 120 138 168 119 100 85 75 75 79 98 107 87 56 48 33 16 360 175 186 157 135 106 82 35
214 257 257 265 230 254 267 255 258 168 146 157 206 241 100 105 99 90 85 95 94 96 138 119 83 67 73 124 208 105 76 81 132 118 114 254 169 162 190 199 165 145 143 114 116 118 111 113 123 124 122 124 124 122 122 118 120 121 121 131 133 130 131 139 140 132 116 111 115 138 136 90 92 77 104 108 78 183 277 281 282 154 127 135 137 129 115